Regional Weather Roundup
Issued by NWS Upton, NY

Current Version | Previous Version | Text Only | Print | Product List | Glossary Off
Versions: 1 2 3 4 5 6 7 8 9 10 11 12 13 14 15 16 17 18 19 20 21 22 23 24 25 26 27 28 29 30 31

000
ASUS41 KOKX 251705
RWROKX

REGIONAL WEATHER ROUNDUP
NATIONAL WEATHER SERVICE NEW YORK NY
100 PM EDT THU AUG 25 2016

NOTE: "FAIR" INDICATES FEW OR NO CLOUDS BELOW 12,000 FEET WITH NO
SIGNIFICANT WEATHER AND/OR OBSTRUCTIONS TO VISIBILITY.

NYZ071-072-176-178-NJZ106-104-251800-
NEW YORK CITY METRO AREA

CITY           SKY/WX    TMP DP  RH WIND       PRES   REMARKS
Central Park     N/A     84  64  51 MISG        N/A
LaGuardia APRT PTSUNNY   84  63  49 S10G22    30.06F
Kennedy INTL   PTSUNNY   81  66  60 S17G25    30.09F
Newark/Liberty PTSUNNY   85  64  49 S12       30.06F
Bronx Bot Gard   N/A     82  63  51 SE7       30.06F
Wall St Helipt MOSUNNY   84  63  48 S10       30.08F
Teterboro      CLOUDY    84  62  47 S10       30.05F
$$

NYZ177-179-078>081-251800-
LONG ISLAND NEW YORK

CITY           SKY/WX    TMP DP  RH WIND       PRES   REMARKS
Farmingdale    CLOUDY    79  65  62 S18       30.09F
MacArthur/ISP  PTSUNNY   81  64  56 S16G22    30.09F
Shirley        MOSUNNY   79  67  66 S15G21    30.11F
Riverhead      NOT AVBL
Westhampton    MOSUNNY   77  66  68 S13       30.12F
Southampton      N/A     77  70  78 SW8       30.07F
Bridgehampton    N/A     79  68  69 S5        30.09F
East Hampton   FAIR      78  66  67 SW13G22   30.10F
Montauk          N/A     78  68  71 S10       30.12S
$$

NYZ052-065-067-251800-
HUDSON VALLEY

CITY           SKY/WX    TMP DP  RH WIND       PRES   REMARKS
White Plains   PTSUNNY   80  64  58 S13G21    30.07F
Newburgh       PTSUNNY   81  70  69 W8        30.06F
Montgomery     MOSUNNY   82  71  69 SW7       30.03F
Poughkeepsie   PTSUNNY   82  67  60 S12G18    30.03F
Albany         CLOUDY    78  66  66 S14       29.99F
$$

NJZ001-105-106-008-010-013-015-019>022-104-251800-
NEW JERSEY

CITY           SKY/WX    TMP DP  RH WIND       PRES   REMARKS
Newark/Liberty PTSUNNY   85  64  49 S12       30.06F
Teterboro      CLOUDY    84  62  47 S10       30.05F
Caldwell       MOSUNNY   84  66  54 W9        30.05F
Morristown     PTSUNNY   84  68  58 S12G17    30.06F
Somerville     SUNNY     84  69  60 S6        30.04F
Linden         FAIR      87  63  44 SW6       30.07F
Sussex         MOSUNNY   82  70  66 SW12      30.05F
Abdover          N/A     81  69  67 S9G17     30.06F
Trenton        SUNNY     86  68  54 S9        30.06F
Millville      SUNNY     83  71  67 VRB7      30.10F
Atlantic City  MOSUNNY   83  68  60 S14G23    30.09F
Wrightstown    MOSUNNY   85  69  58 SW14      30.04F
Toms River     PTSUNNY   86  66  51 S13       30.09F
Belmar         PTSUNNY   84  66  54 SE8       30.09F
$$

PAZ047>061-062-071-251800-
EASTERN PENNSYLVANIA

CITY           SKY/WX    TMP DP  RH WIND       PRES   REMARKS
Philadelphia   PTSUNNY   85  68  56 SW15G22   30.07F
Allentown      CLOUDY    81  69  67 SW10      30.06F
Scranton       CLOUDY    78  68  71 SW10      30.05F
$$

CTZ002-004>006-009-010-012-RIZ004-006-007-MAZ004-011-015-251800-
SOUTHERN NEW ENGLAND
 IN CT

CITY           SKY/WX    TMP DP  RH WIND       PRES   REMARKS
Bradley INTL   CLOUDY    84  65  52 SW13G23   30.05S
Hartford       PTSUNNY   85  66  53 S16G24    30.05F
Danbury        MOSUNNY   79  65  62 S9G16     30.08F
Wtrbury/Oxford PTSUNNY   79  64  61 SW14      30.11F
Bridgeport     PTSUNNY   85  66  53 SW14      30.07F
Meriden        MOSUNNY   82  64  54 S14G22    30.07F
New Haven      PTSUNNY   80  65  59 SW10      30.08F
Chester        FAIR      79  66  65 SW10G18   30.10S
Groton         MOSUNNY   81  68  64 SW13      30.08F
Wilimantic     MOSUNNY   81  64  56 SW13G18   30.08F

 IN RI

CITY           SKY/WX    TMP DP  RH WIND       PRES   REMARKS
Providence     PTSUNNY   84  61  45 SW15      30.08F
Block Island   SUNNY     78  69  73 SW16G22     N/A
Westerly       SUNNY     80  64  58 S13G23    30.11F
 IN MA

CITY           SKY/WX    TMP DP  RH WIND       PRES   REMARKS
Boston         PTSUNNY   87  62  43 SW16G24   30.03F
Worcester      CLOUDY    78  62  57 S16       30.09S
Westfield      PTSUNNY   83  66  56 S16       30.03F
Provincetown   MOSUNNY   80  65  59 SW20G25   30.07F
Nantucket      MOSUNNY   76  67  73 S16       30.12F
$$

ANZ330-335-338-340-345-350-353-355-251800-
COASTAL MARINE OBSERVATIONS


STATION/POSITION TIME  SKY/WX   TEMP    WIND        PRES    VSBY  WAVE
                                AIR SEA DIR/SP/G                  HT/PER
                 (UTC)          (F)     (DEG/KT/KT) (MB)    (MI)  (FT/S)
NY HARB ENTRANCE 1550            75 74  190/ 16/ 19 1019.1          3/ 4
20S FIRE ISLAND  1550            74 74  200/ 12/ 16 1019.6          3/10
GREAT SOUTH BAY  1600            75 79  210/ 10/ 14   N/A
23 SSW MONTAUK P 1550            75 74  220/ 12/ 14 1020.6          3/10
15 E BARNEGAT LI 1600               76                N/A           3/10
HUDSON CANYON    1550            77 78              1020.6          2/10
KINGS POINT      1600            77 76              1018.8
EXECUTION ROCKS  1600            79     180/ 12/ 17   N/A
CENTRAL LI SOUND NOT AVBL
EASTERN LI SOUND 1600            75 71  220/ 10/ 12   N/A
ROBBINS REEF     1600            78     160/ 12/ 14 1018.1
$$


>>>>>>>>>>>>>>>>>>>>>>>>>>>> KEY <<<<<<<<<<<<<<<<<<<<<<<<<<<
>                                                          <
>     SKY/WX - Sky Condition/Present Weather               <
>     TMP    - Temperature in Fahrenheit                   <
>     DP     - Dew Point in Fahrenheit                     <
>     RH     - Relative Humidity in Percent                <
>     WIND   - Direction (from) and Speed in MPH           <
>     PRES   - Mean Sea Level Pressure (inches of Hg)      <
>     WCI    - Wind Chill Index                            <
>     VSB    - VISIBILITY IN MILES                         <
>     HX     - HEAT INDEX                                  <
>     TC     - TEMPERATURE IN CELSIUS                      <
>     VRB    - VARIABLE WIND DIRECTION                     <
>                                                          <
>>>>>>>>>>>>>>>>>>>>>>>>>>>> KEY <<<<<<<<<<<<<<<<<<<<<<<<<<<




USA.gov is the U.S. government's official web portal to all federal, state and local government web resources and services.